Regional Weather Roundup
Issued by NWS Sioux Falls, SD

Home | Current Version | Previous Version | Graphics & Text | Print | Product List | Glossary Off
Versions: 1 2 3 4 5 6 7 8 9 10 11 12 13 14 15 16 17 18 19 20 21 22 23 24 25 26 27 28 29 30 31 32 33 34 35 36 37 38 39 40 41 42 43 44 45 46 47 48 49 50

000
ASUS43 KFSD 270802
RWRFSD

WEATHER ROUNDUP FOR SE SOUTH DAKOTA/SW MINNESOTA/NW IOWA
NATIONAL WEATHER SERVICE SIOUX FALLS SD
300 AM CDT WED JUL 27 2016

NOTE: "FAIR" INDICATES FEW OR NO CLOUDS BELOW 12,000 FEET WITH NO
SIGNIFICANT WEATHER AND OR OBSTRUCTIONS TO VISIBILITY.


SDZ038>040-050-052>070-270900-
SOUTHEAST SOUTH DAKOTA

CITY           SKY/WX    TMP DP  RH WIND       PRES   REMARKS
BROOKINGS      CLOUDY    70  65  84 S8        29.95S
CHAMBERLAIN    CLOUDY    69  63  83 NW9       29.99R
HURON          CLOUDY    70  65  84 W13       29.92R
MADISON        FAIR      70  68  94 S8        29.96S
MITCHELL       CLOUDY    73  62  68 N10       29.93S
SIOUX FALLS    MOCLDY    75  64  68 S18G26    29.94F
WINNER         FAIR      69  58  67 W7        30.00R
YANKTON        CLOUDY    73  63  68 SW30      29.93F
$$

MNZ071-072-080-081-089-090-097-098-270900-
SOUTHWEST MINNESOTA

CITY           SKY/WX    TMP DP  RH WIND       PRES   REMARKS
FAIRMONT       CLOUDY    70  64  83 SW7       30.00R
JACKSON        PTCLDY    70  63  78 SW6       30.01S
LUVERNE        CLOUDY    68  64  88 S3        29.98S
MARSHALL       CLOUDY    72  68  87 SE8       29.96F
MONTEVIDEO     CLOUDY    70  66  88 S6        29.97F
REDWOOD FALLS  CLOUDY    73  67  81 S5        29.98R
TRACY          CLOUDY    72  68  88 S5        29.98F
WINDOM         PTCLDY    70  64  83 S6        30.00S
WORTHINGTON    PTCLDY    71  65  81 S12       30.00F
$$

IAZ001>003-012>014-020>022-031-032-NEZ013-014-SDZ071-270900-
NORTHWEST IOWA

CITY           SKY/WX    TMP DP  RH WIND       PRES   REMARKS
CHEROKEE       CLOUDY    67  66  96 CALM      30.02R
DENISON        CLOUDY    66  64  94 CALM      30.00F
ESTHERVILLE    PTCLDY    65  64  97 S5        30.00S
LE MARS        MOCLDY    70  66  88 S6        30.01F
SHELDON        MOCLDY    68  66  94 S9        29.98F
SIOUX CITY     CLOUDY    71  67  87 S5        30.01S
SPENCER        CLOUDY    67  65  93 SW6       30.02R
STORM LAKE     PTCLDY    66  64  94 SW5       30.03S
$$

ABBREVIATIONS USED IN REMARKS
   TC - TEMPERATURE IN CELSIUS
  WCI - WIND CHILL INDEX
   HX - HEAT INDEX
  VSB - VISIBILITY




USA.gov is the U.S. government's official web portal to all federal, state and local government web resources and services.